DW1143 Weather Reports


Display with metric or nautical units.
time (UTC)temp
F
wind
direction
speed
MPH
gust
MPH
rain 1hr
in
rain 24hr
in
rain mn
in
humidity
%
barometer
mb
20260508015804 53 103 0.0 0.0 0.00 0.00 0.00 73 1014.4
20260508015306 53 103 0.0 0.0 0.00 0.00 0.00 73 1014.4
20260508014804 53 103 0.0 0.0 0.00 0.00 0.00 72 1014.4
20260508014304 53 103 0.0 0.0 0.00 0.00 0.00 72 1014.3
20260508012804 53 103 0.0 0.0 0.00 0.00 0.00 72 1014.5
20260508012307 53 103 0.0 0.0 0.00 0.00 0.00 72 1014.5
20260508011804 53 103 0.0 0.0 0.00 0.00 0.00 72 1014.5
20260508011303 54 103 0.0 0.0 0.00 0.00 0.00 72 1014.5
20260508010804 54 103 0.0 0.0 0.00 0.00 0.00 72 1014.5
20260508010304 54 103 0.0 0.0 0.00 0.00 0.00 71 1014.5
20260508005804 54 103 0.0 0.0 0.00 0.00 0.00 72 1014.5
20260508005305 54 103 0.0 0.0 0.00 0.00 0.00 72 1014.5
20260508004804 54 103 0.0 0.0 0.00 0.00 0.00 72 1014.5
20260508004304 54 103 0.0 0.0 0.00 0.00 0.00 72 1014.5
20260508003804 54 103 0.0 0.0 0.00 0.00 0.00 72 1014.5
20260508003304 54 103 0.0 0.0 0.00 0.00 0.00 72 1014.5
20260508002804 54 103 0.0 0.0 0.00 0.00 0.00 72 1014.5
20260508002306 54 102 0.0 0.0 0.00 0.00 0.00 72 1014.5
20260508001804 54 102 0.0 0.0 0.00 0.00 0.00 73 1014.5
20260508001304 54 102 0.0 0.0 0.00 0.00 0.00 73 1014.5
20260508000804 53 102 0.0 0.0 0.00 0.00 0.00 73 1014.5
20260508000305 53 103 0.0 0.0 0.00 0.00 0.00 74 1014.6
20260507235306 53 94 0.0 0.0 0.00 0.00 0.00 76 1014.6
20260507234804 53 94 0.0 0.0 0.00 0.00 0.00 77 1014.6
20260507234304 53 94 0.0 0.0 0.00 0.00 0.00 78 1014.6
20260507233804 53 94 0.0 0.0 0.00 0.00 0.00 78 1014.6
20260507233304 53 94 0.0 0.0 0.00 0.00 0.00 79 1014.6
20260507232803 53 94 0.0 0.0 0.00 0.00 0.00 80 1014.7
20260507232306 53 94 0.0 0.0 0.00 0.00 0.00 81 1014.7
20260507231804 53 94 0.0 0.0 0.00 0.00 0.00 81 1014.6
20260507231304 53 94 0.0 0.0 0.00 0.00 0.00 80 1014.6
20260507230304 53 94 0.0 0.0 0.00 0.00 0.00 80 1014.7
20260507225804 53 94 0.0 1.0 0.00 0.00 0.00 80 1014.7
20260507225306 53 94 0.0 0.0 0.00 0.00 0.00 80 1014.7
20260507224803 54 95 0.0 0.0 0.00 0.00 0.00 79 1014.8
20260507224304 54 95 0.0 0.0 0.00 0.00 0.00 79 1014.7
20260507223804 54 95 0.0 0.0 0.00 0.00 0.00 79 1014.6
20260507223304 54 95 0.0 0.0 0.00 0.00 0.00 78 1014.7
20260507222804 54 95 0.0 0.0 0.00 0.00 0.00 78 1014.7
20260507222306 54 95 0.0 0.0 0.00 0.00 0.00 78 1014.7
20260507221804 54 95 0.0 0.0 0.00 0.00 0.00 78 1014.7
20260507221304 54 95 0.0 0.0 0.00 0.00 0.00 77 1014.7
20260507220804 54 95 0.0 0.0 0.00 0.00 0.00 77 1014.8
20260507220303 54 95 0.0 0.0 0.00 0.00 0.00 77 1014.7
20260507215804 55 95 0.0 0.0 0.00 0.00 0.00 77 1014.7
20260507215306 55 95 0.0 0.0 0.00 0.00 0.00 77 1014.7
20260507214804 55 95 0.0 0.0 0.00 0.00 0.00 76 1014.7
20260507214304 55 95 0.0 0.0 0.00 0.00 0.00 76 1014.8
20260507213304 55 95 0.0 0.0 0.00 0.00 0.00 77 1014.7
20260507212804 55 95 0.0 0.0 0.00 0.00 0.00 77 1014.8
20260507212307 55 95 0.0 0.0 0.00 0.00 0.00 77 1014.8
20260507211804 55 95 0.0 0.0 0.00 0.00 0.00 77 1014.7
20260507211303 55 95 0.0 0.0 0.00 0.00 0.00 78 1014.7
20260507210804 55 95 0.0 0.0 0.00 0.00 0.00 78 1014.6
20260507210304 56 95 0.0 0.0 0.00 0.00 0.00 78 1014.5
20260507205804 56 95 0.0 0.0 0.00 0.00 0.00 78 1014.5
20260507205306 56 95 0.0 0.0 0.00 0.00 0.00 78 1014.5
20260507204804 56 96 0.0 0.0 0.00 0.00 0.00 78 1014.4
20260507203305 56 97 0.0 0.0 0.00 0.00 0.00 78 1014.4
20260507202307 56 97 0.0 2.0 0.00 0.00 0.00 77 1014.3
20260507201305 57 98 0.0 1.0 0.00 0.00 0.00 76 1014.1
20260507200805 57 99 1.0 2.0 0.00 0.00 0.00 76 1014.1
20260507200305 57 99 1.0 3.0 0.00 0.00 0.00 75 1014.0
20260507195805 57 98 0.0 2.0 0.00 0.00 0.00 75 1014.0
20260507195306 57 98 0.0 1.0 0.00 0.00 0.00 74 1014.0
20260507194805 57 98 1.0 2.0 0.00 0.00 0.00 74 1013.9
20260507194305 58 98 0.0 0.0 0.00 0.00 0.00 73 1013.9
20260507193805 58 98 0.0 0.0 0.00 0.00 0.00 73 1013.9
20260507193305 58 98 0.0 1.0 0.00 0.00 0.00 73 1013.9
20260507192805 58 98 0.0 1.0 0.00 0.00 0.00 72 1013.9
20260507192306 58 98 0.0 2.0 0.00 0.00 0.00 71 1013.9
20260507191804 58 98 1.0 2.0 0.00 0.00 0.00 70 1013.8
20260507191305 58 98 1.0 2.0 0.00 0.00 0.00 69 1013.8
20260507190805 59 98 0.0 2.0 0.00 0.00 0.00 69 1013.7
20260507190305 59 108 1.0 2.0 0.00 0.00 0.00 67 1013.7
20260507185805 59 109 0.0 2.0 0.00 0.00 0.00 67 1013.7
20260507185306 59 109 1.0 2.0 0.00 0.00 0.00 67 1013.7
20260507184805 59 133 0.0 2.0 0.00 0.00 0.00 67 1013.8
20260507184306 59 134 0.0 2.0 0.00 0.00 0.00 66 1013.8
20260507183305 59 164 1.0 2.0 0.00 0.00 0.00 65 1013.7
20260507182805 59 171 0.0 1.0 0.00 0.00 0.00 64 1013.8
20260507182307 59 171 0.0 2.0 0.00 0.00 0.00 64 1013.8
20260507181805 60 171 0.0 1.0 0.00 0.00 0.00 64 1013.8
20260507181305 59 171 0.0 1.0 0.00 0.00 0.00 64 1013.7
20260507180805 59 171 1.0 2.0 0.00 0.00 0.00 64 1013.7
20260507180305 60 165 1.0 2.0 0.00 0.00 0.00 64 1013.7
20260507175307 60 254 1.0 2.0 0.00 0.00 0.00 63 1013.6
20260507174805 60 251 1.0 3.0 0.00 0.00 0.00 64 1013.7
20260507174305 60 258 1.0 2.0 0.00 0.00 0.00 64 1013.7
20260507173305 60 262 1.0 2.0 0.00 0.00 0.00 65 1013.7
20260507172805 60 268 2.0 3.0 0.00 0.00 0.00 65 1013.7
20260507172307 59 252 1.0 3.0 0.00 0.00 0.00 65 1013.7
20260507171305 60 254 1.0 3.0 0.00 0.00 0.00 66 1013.7
20260507170305 60 271 2.0 3.0 0.00 0.00 0.00 66 1013.7
20260507165805 60 279 2.0 3.0 0.00 0.00 0.00 67 1013.7
20260507164805 60 283 1.0 3.0 0.00 0.00 0.00 67 1013.7
20260507164305 60 265 2.0 5.0 0.00 0.00 0.00 67 1013.7
20260507163805 61 261 2.0 5.0 0.00 0.00 0.00 65 1013.7
20260507163305 61 262 2.0 3.0 0.00 0.00 0.00 64 1013.6
20260507162804 61 256 2.0 3.0 0.00 0.00 0.00 63 1013.6
20260507162307 62 259 1.0 3.0 0.00 0.00 0.00 62 1013.6
20260507161805 62 273 2.0 3.0 0.00 0.00 0.00 62 1013.6
20260507161306 62 294 2.0 5.0 0.00 0.00 0.00 64 1013.6
20260507160805 62 267 3.0 6.0 0.00 0.00 0.00 63 1013.7
20260507155805 61 269 2.0 3.0 0.00 0.00 0.00 66 1013.7
20260507155306 60 319 2.0 3.0 0.00 0.00 0.00 67 1013.8
20260507154805 60 274 0.0 2.0 0.00 0.00 0.00 68 1013.8
20260507154304 60 277 0.0 3.0 0.00 0.00 0.00 67 1013.8
20260507153805 60 263 0.0 5.0 0.00 0.00 0.00 67 1013.9
20260507153305 60 279 2.0 3.0 0.00 0.00 0.00 67 1013.9
20260507152805 60 304 2.0 3.0 0.00 0.00 0.00 66 1013.9
20260507152306 60 254 1.0 6.0 0.00 0.00 0.00 66 1013.9
20260507151805 60 287 2.0 3.0 0.00 0.00 0.00 67 1013.9
20260507151305 60 267 0.0 0.0 0.00 0.00 0.00 67 1013.9
20260507150805 60 270 0.0 3.0 0.00 0.00 0.00 66 1013.9
20260507150305 60 218 0.0 0.0 0.00 0.00 0.00 66 1013.8
20260507145805 60 229 0.0 0.0 0.00 0.00 0.00 65 1013.8
20260507145307 60 233 0.0 2.0 0.00 0.00 0.00 65 1013.8
20260507144305 60 275 0.0 6.0 0.00 0.00 0.00 65 1013.9
20260507143804 60 245 2.0 6.0 0.00 0.00 0.00 66 1013.9
20260507143305 60 272 0.0 3.0 0.00 0.00 0.00 66 1013.9
20260507142805 60 244 1.0 5.0 0.00 0.00 0.00 66 1014.0
20260507142307 60 284 1.0 3.0 0.00 0.00 0.00 65 1014.0
20260507141805 60 250 0.0 2.0 0.00 0.00 0.00 66 1014.1
20260507141305 59 263 1.0 2.0 0.00 0.00 0.00 67 1014.1
20260507140805 59 265 0.0 2.0 0.00 0.00 0.00 69 1014.2
20260507140305 59 247 0.0 0.0 0.00 0.00 0.00 71 1014.2
20260507135805 58 246 0.0 0.0 0.00 0.00 0.00 70 1014.2
20260507135306 58 272 0.0 0.0 0.00 0.00 0.00 72 1014.2
20260507134305 58 227 0.0 1.0 0.00 0.00 0.00 73 1014.2
20260507133305 58 261 0.0 3.0 0.00 0.00 0.00 73 1014.4
20260507132805 58 267 1.0 3.0 0.00 0.00 0.00 74 1014.4
20260507131804 58 258 1.0 3.0 0.00 0.00 0.00 74 1014.4
20260507131305 58 259 0.0 2.0 0.00 0.00 0.00 72 1014.3
20260507130805 58 272 2.0 3.0 0.00 0.00 0.00 70 1014.3
20260507130305 59 269 1.0 3.0 0.00 0.00 0.00 70 1014.4
20260507125805 59 302 0.0 0.0 0.00 0.00 0.00 70 1014.3
20260507125307 59 305 0.0 0.0 0.00 0.00 0.00 70 1014.3
20260507124805 59 276 0.0 0.0 0.00 0.00 0.00 70 1014.3
20260507124305 59 279 0.0 0.0 0.00 0.00 0.00 70 1014.3
20260507123805 58 278 0.0 0.0 0.00 0.00 0.00 71 1014.4
20260507123305 58 277 0.0 0.0 0.00 0.00 0.00 72 1014.4
20260507122805 58 279 0.0 0.0 0.00 0.00 0.00 72 1014.5
20260507122307 58 271 0.0 0.0 0.00 0.00 0.00 72 1014.5
20260507121805 58 268 0.0 1.0 0.00 0.00 0.00 71 1014.5
20260507121304 58 254 0.0 1.0 0.00 0.00 0.00 71 1014.5
20260507120805 58 293 1.0 3.0 0.00 0.00 0.00 71 1014.4
20260507120305 58 273 0.0 3.0 0.00 0.00 0.00 70 1014.4
20260507115805 59 261 0.0 2.0 0.00 0.00 0.00 70 1014.5
20260507115307 59 264 1.0 5.0 0.00 0.00 0.00 70 1014.5
20260507114805 59 272 0.0 0.0 0.00 0.00 0.00 70 1014.5
20260507114305 59 271 0.0 0.0 0.00 0.00 0.00 69 1014.5
20260507113805 60 264 1.0 5.0 0.00 0.00 0.00 69 1014.4
20260507113305 60 266 1.0 2.0 0.00 0.00 0.00 65 1014.4
20260507112307 60 268 0.0 3.0 0.00 0.00 0.00 66 1014.4
20260507111805 60 267 2.0 5.0 0.00 0.00 0.00 66 1014.5
20260507111305 60 249 0.0 3.0 0.00 0.00 0.00 65 1014.6
20260507110805 60 277 3.0 5.0 0.00 0.00 0.00 66 1014.5
20260507110305 60 252 2.0 6.0 0.00 0.00 0.00 64 1014.5
20260507105805 61 274 2.0 5.0 0.00 0.00 0.00 63 1014.6
20260507105306 62 264 2.0 5.0 0.00 0.00 0.00 60 1014.6
20260507104805 62 96 1.0 5.0 0.00 0.00 0.00 60 1014.6
20260507104305 62 261 0.0 5.0 0.00 0.00 0.00 61 1014.7
20260507103305 60 95 2.0 9.0 0.00 0.00 0.00 66 1014.7
20260507102805 59 258 1.0 6.0 0.00 0.00 0.00 71 1014.7
20260507101805 59 262 0.0 2.0 0.00 0.00 0.00 70 1014.8
20260507101304 60 263 2.0 5.0 0.00 0.00 0.00 70 1014.8
20260507100805 60 252 1.0 6.0 0.00 0.00 0.00 68 1014.8
20260507100304 61 244 1.0 6.0 0.00 0.00 0.00 69 1014.7
20260507095805 60 314 1.0 6.0 0.00 0.00 0.00 69 1014.8
20260507095306 60 297 0.0 0.0 0.00 0.00 0.00 70 1014.8
20260507094805 59 266 0.0 0.0 0.00 0.00 0.00 71 1014.8
20260507094305 58 100 0.0 0.0 0.00 0.00 0.00 70 1014.8
20260507093305 58 248 0.0 0.0 0.00 0.00 0.00 71 1014.7
20260507091805 57 189 0.0 0.0 0.00 0.00 0.00 74 1014.9
20260507091305 57 115 0.0 0.0 0.00 0.00 0.00 74 1015.0
20260507090304 56 95 0.0 0.0 0.00 0.00 0.00 75 1014.9
20260507085805 56 41 0.0 1.0 0.00 0.00 0.00 76 1015.0
20260507083805 54 65 0.0 0.0 0.00 0.00 0.00 78 1015.0
20260507083305 54 115 0.0 5.0 0.00 0.00 0.00 78 1014.9
20260507082805 54 85 1.0 3.0 0.00 0.00 0.00 78 1014.9
20260507082306 53 114 0.0 2.0 0.00 0.00 0.00 78 1014.9
20260507081805 53 94 1.0 3.0 0.00 0.00 0.00 78 1015.0
20260507081304 53 105 0.0 0.0 0.00 0.00 0.00 79 1015.0
20260507080805 53 76 0.0 2.0 0.00 0.00 0.00 79 1015.0
20260507075805 52 49 0.0 3.0 0.00 0.00 0.00 80 1015.0
20260507075307 51 87 0.0 0.0 0.00 0.00 0.00 80 1015.1
20260507074804 51 102 0.0 0.0 0.00 0.00 0.00 80 1015.0
20260507074304 51 72 0.0 1.0 0.00 0.00 0.00 81 1015.0
20260507073805 51 83 1.0 6.0 0.00 0.00 0.00 81 1015.0
20260507073305 51 84 2.0 5.0 0.00 0.00 0.00 82 1015.0
20260507072307 50 105 0.0 5.0 0.00 0.00 0.00 82 1014.9
20260507071805 50 104 2.0 3.0 0.00 0.00 0.00 82 1014.9
20260507071305 50 68 1.0 5.0 0.00 0.00 0.00 83 1014.8
20260507070804 49 98 1.0 6.0 0.00 0.00 0.00 83 1014.8
20260507065805 49 79 0.0 0.0 0.00 0.00 0.00 83 1014.8
20260507065306 49 98 0.0 0.0 0.00 0.00 0.00 83 1014.8
20260507064805 49 87 0.0 0.0 0.00 0.00 0.00 83 1014.8
20260507064304 49 98 0.0 0.0 0.00 0.00 0.00 83 1014.8
20260507063805 48 107 0.0 0.0 0.00 0.00 0.00 83 1014.8
20260507063305 48 92 0.0 0.0 0.00 0.00 0.00 83 1014.7
20260507062805 48 93 0.0 3.0 0.00 0.00 0.00 83 1014.7
20260507062306 48 72 0.0 3.0 0.00 0.00 0.00 83 1014.7
20260507061804 48 84 1.0 7.0 0.00 0.00 0.00 83 1014.6
20260507061305 48 94 0.0 3.0 0.00 0.00 0.00 83 1014.6
20260507060305 48 86 1.0 3.0 0.00 0.00 0.00 83 1014.7
20260507055805 48 51 0.0 3.0 0.00 0.00 0.00 83 1014.6
20260507054805 48 94 1.0 6.0 0.00 0.00 0.00 82 1014.5
20260507054304 48 87 0.0 3.0 0.00 0.00 0.00 82 1014.5
20260507053805 48 85 0.0 3.0 0.00 0.00 0.00 82 1014.5
20260507053304 48 76 0.0 3.0 0.00 0.00 0.00 82 1014.5
20260507052805 48 111 2.0 6.0 0.00 0.00 0.00 82 1014.4
20260507052306 48 93 0.0 6.0 0.00 0.00 0.00 82 1014.4
20260507051805 48 94 0.0 0.0 0.00 0.00 0.00 82 1014.5
20260507051305 48 94 0.0 3.0 0.00 0.00 0.00 82 1014.5
20260507050805 48 96 3.0 6.0 0.00 0.00 0.00 82 1014.4
20260507050305 48 112 0.0 3.0 0.00 0.00 0.00 82 1014.4
20260507045804 48 115 0.0 5.0 0.00 0.00 0.00 82 1014.5
20260507045306 48 95 1.0 3.0 0.00 0.00 0.00 81 1014.5
20260507044805 48 91 0.0 0.0 0.00 0.00 0.00 81 1014.4
20260507043805 48 98 1.0 6.0 0.00 0.00 0.00 81 1014.3
20260507043305 48 101 0.0 0.0 0.00 0.00 0.00 81 1014.3
20260507042805 48 108 0.0 0.0 0.00 0.00 0.00 81 1014.3
20260507042307 49 92 0.0 0.0 0.00 0.00 0.00 80 1014.3
20260507040304 49 91 0.0 3.0 0.00 0.00 0.00 80 1014.4
20260507034305 49 122 0.0 0.0 0.00 0.00 0.00 80 1014.3
20260507033805 49 111 0.0 0.0 0.00 0.00 0.00 80 1014.2
20260507033305 49 106 0.0 0.0 0.00 0.00 0.00 80 1014.3
20260507032805 49 75 0.0 0.0 0.00 0.00 0.00 80 1014.3
20260507032306 49 85 0.0 0.0 0.00 0.00 0.00 80 1014.2
20260507031805 49 87 0.0 0.0 0.00 0.00 0.00 80 1014.2
20260507031305 49 96 0.0 3.0 0.00 0.00 0.00 80 1014.2
20260507030805 49 85 1.0 5.0 0.00 0.00 0.00 79 1014.3
20260507030305 49 86 0.0 3.0 0.00 0.00 0.00 79 1014.3
20260507025805 49 103 0.0 3.0 0.00 0.00 0.00 79 1014.3
20260507025306 49 85 2.0 5.0 0.00 0.00 0.00 79 1014.2
20260507024805 49 84 2.0 6.0 0.00 0.00 0.00 79 1014.3
20260507023805 49 100 0.0 3.0 0.00 0.00 0.00 79 1014.3
20260507023305 49 109 0.0 6.0 0.00 0.00 0.00 79 1014.2
20260507022805 49 88 1.0 6.0 0.00 0.00 0.00 79 1014.2
20260507022306 49 95 1.0 7.0 0.00 0.00 0.00 79 1014.2
20260507021804 49 82 2.0 6.0 0.00 0.00 0.00 79 1014.2
20260507020304 49 87 5.0 7.0 0.00 0.00 0.00 78 1014.2